tititudorancea.com
Station Historical Data
 
Daily Summary for March 25, 2017 Units:  Metric    English   Both
« Previous Day
Next Day »
Daily Weekly Monthly Yearly Custom
  Current: High: Low: Average:
Temperature: 22.2 °C 31.8 °C 18.2 °C 23.8 °C
Dew Point: 19.3 °C 22.4 °C 16.4 °C 18.9 °C
Humidity: 84 % 93 % 51 % 76 %
Wind Speed: 0 km/h 0 km/h 0 km/h 0 km/h
Wind Gust: 0 km/h 172.2 km/h - -
Wind:Calm - - North
Pressure: 1019.9 hPa 1022.2 hPa 1017.2 hPa -
Precipitation: 0 mm      
Historical Graphs
 
 
Ararat weather Find more about Weather in Ararat, AU


 



 


Tabular Data for March 25, 2017
Time Temperature Dew Point Pressure Wind Wind Speed Wind Gust Humidity Rainfall Rate (Hourly)
00:01 18.8 °C 16.4 °C 1022.2 hPa Calm     86 % 0 mm
00:06 18.8 °C 16.4 °C 1021.9 hPa Calm     86 % 0 mm
00:11 18.8 °C 16.6 °C 1022.2 hPa Calm     87 % 0 mm
00:16 18.8 °C 16.6 °C 1021.9 hPa Calm     87 % 0 mm
00:21 18.8 °C 16.6 °C 1021.9 hPa Calm     87 % 0 mm
00:26 18.8 °C 16.6 °C 1021.9 hPa Calm     87 % 0 mm
00:31 18.8 °C 16.6 °C 1021.6 hPa Calm     87 % 0 mm
00:37 18.7 °C 16.5 °C 1021.6 hPa Calm     87 % 0 mm
00:42 18.7 °C 16.5 °C 1021.6 hPa Calm     87 % 0 mm
00:47 18.7 °C 16.7 °C 1021.6 hPa Calm     88 % 0 mm
00:52 18.6 °C 16.6 °C 1021.2 hPa Calm     88 % 0 mm
00:57 18.6 °C 16.6 °C 1020.9 hPa Calm   172.2 km/h 88 % 0 mm
01:02 18.5 °C 16.5 °C 1020.9 hPa Calm   172.2 km/h 88 % 0 mm
01:07 18.5 °C 16.5 °C 1020.9 hPa Calm     88 % 0 mm
01:12 18.4 °C 16.4 °C 1020.9 hPa Calm     88 % 0 mm
01:17 18.4 °C 16.6 °C 1020.9 hPa Calm     89 % 0 mm
01:22 18.4 °C 16.6 °C 1020.5 hPa Calm     89 % 0 mm
01:27 18.4 °C 16.6 °C 1020.5 hPa Calm     89 % 0 mm
01:32 18.4 °C 16.8 °C 1020.2 hPa Calm     90 % 0 mm
01:37 18.4 °C 16.8 °C 1020.2 hPa Calm     90 % 0 mm
01:42 18.3 °C 16.8 °C 1020.5 hPa Calm     91 % 0 mm
01:47 18.2 °C 16.7 °C 1020.2 hPa Calm     91 % 0 mm
01:52 18.2 °C 16.9 °C 1020.2 hPa Calm     92 % 0 mm
01:57 18.2 °C 16.9 °C 1020.2 hPa Calm     92 % 0 mm
02:02 18.2 °C 17.1 °C 1020.2 hPa Calm     93 % 0 mm
02:07 18.2 °C 17.1 °C 1020.2 hPa Calm     93 % 0 mm
02:12 18.2 °C 17.1 °C 1020.2 hPa Calm     93 % 0 mm
02:17 18.2 °C 17.1 °C 1020.2 hPa Calm     93 % 0 mm
02:22 18.2 °C 17.1 °C 1019.9 hPa Calm     93 % 0 mm
02:27 18.2 °C 17.1 °C 1019.9 hPa Calm     93 % 0 mm
02:32 18.2 °C 17.1 °C 1019.9 hPa Calm     93 % 0 mm
02:37 18.3 °C 17.2 °C 1019.9 hPa Calm     93 % 0 mm
02:42 18.3 °C 17.2 °C 1019.5 hPa Calm     93 % 0 mm
02:47 18.3 °C 17.2 °C 1019.5 hPa Calm     93 % 0 mm
02:52 18.3 °C 17.2 °C 1019.5 hPa Calm     93 % 0 mm
02:57 18.3 °C 17.2 °C 1019.5 hPa Calm     93 % 0 mm
03:02 18.3 °C 17.2 °C 1019.2 hPa Calm     93 % 0 mm
03:07 18.3 °C 17.2 °C 1019.2 hPa Calm     93 % 0 mm
03:12 18.3 °C 17.2 °C 1019.5 hPa Calm     93 % 0 mm
03:13 18.3 °C 17.2 °C 1019.5 hPa Calm     93 % 0 mm
03:18 18.3 °C 17.2 °C 1019.5 hPa Calm     93 % 0 mm
03:23 18.3 °C 17.2 °C 1019.9 hPa Calm     93 % 0 mm
03:28 18.3 °C 17.2 °C 1019.5 hPa Calm     93 % 0 mm
03:33 18.4 °C 17.3 °C 1019.5 hPa Calm     93 % 0 mm
03:38 18.4 °C 17.3 °C 1019.2 hPa Calm     93 % 0 mm
03:43 18.4 °C 17.3 °C 1019.2 hPa Calm     93 % 0 mm
03:48 18.4 °C 17.3 °C 1019.2 hPa Calm     93 % 0 mm
03:53 18.4 °C 17.3 °C 1019.2 hPa Calm     93 % 0 mm
03:58 18.4 °C 17.3 °C 1019.2 hPa Calm     93 % 0 mm
04:03 18.4 °C 17.3 °C 1019.2 hPa Calm     93 % 0 mm
04:08 18.4 °C 17.3 °C 1018.8 hPa Calm     93 % 0 mm
04:13 18.4 °C 17.3 °C 1018.8 hPa Calm     93 % 0 mm
04:18 18.4 °C 17.3 °C 1018.8 hPa Calm     93 % 0 mm
04:23 18.4 °C 17.3 °C 1019.2 hPa Calm     93 % 0 mm
04:28 18.4 °C 17.3 °C 1018.8 hPa Calm     93 % 0 mm
04:33 18.4 °C 17.3 °C 1018.8 hPa Calm     93 % 0 mm
04:38 18.5 °C 17.4 °C 1018.8 hPa Calm     93 % 0 mm
04:43 18.5 °C 17.4 °C 1018.8 hPa Calm     93 % 0 mm
04:48 18.5 °C 17.4 °C 1018.8 hPa Calm     93 % 0 mm
04:53 18.6 °C 17.5 °C 1018.8 hPa Calm     93 % 0 mm
04:58 18.6 °C 17.5 °C 1018.8 hPa Calm     93 % 0 mm
05:03 18.7 °C 17.4 °C 1018.8 hPa Calm     92 % 0 mm
05:05 18.7 °C 17.4 °C 1018.8 hPa Calm     92 % 0 mm
05:10 18.8 °C 17.3 °C 1018.8 hPa Calm     91 % 0 mm
05:15 18.8 °C 17.3 °C 1018.8 hPa Calm     91 % 0 mm
05:20 18.8 °C 17.3 °C 1018.8 hPa Calm     91 % 0 mm
05:25 18.8 °C 17.3 °C 1018.8 hPa Calm     91 % 0 mm
05:30 18.8 °C 17.3 °C 1018.5 hPa Calm     91 % 0 mm
05:35 18.8 °C 17.3 °C 1018.5 hPa Calm     91 % 0 mm
05:40 18.8 °C 17.3 °C 1018.5 hPa Calm     91 % 0 mm
05:45 18.8 °C 17.3 °C 1018.5 hPa Calm     91 % 0 mm
05:50 18.8 °C 17.2 °C 1018.8 hPa Calm     90 % 0 mm
05:56 18.7 °C 17.1 °C 1018.8 hPa Calm     90 % 0 mm
06:01 18.7 °C 17.1 °C 1018.8 hPa Calm     90 % 0 mm
06:06 18.7 °C 17.1 °C 1019.2 hPa Calm     90 % 0 mm
06:10 18.7 °C 17.1 °C 1018.8 hPa Calm     90 % 0 mm
06:15 18.7 °C 17.1 °C 1018.8 hPa Calm     90 % 0 mm
06:20 18.6 °C 16.9 °C 1018.8 hPa Calm     90 % 0 mm
06:25 18.6 °C 16.9 °C 1018.8 hPa Calm     90 % 0 mm
06:30 18.6 °C 16.9 °C 1018.8 hPa Calm     90 % 0 mm
06:35 18.6 °C 17.1 °C 1018.8 hPa Calm     91 % 0 mm
06:40 18.6 °C 17.1 °C 1018.5 hPa Calm     91 % 0 mm
06:45 18.5 °C 17.1 °C 1018.8 hPa Calm     91 % 0 mm
06:50 18.4 °C 16.8 °C 1018.8 hPa Calm     90 % 0 mm
06:55 18.3 °C 16.7 °C 1018.8 hPa Calm     90 % 0 mm
07:00 18.3 °C 16.7 °C 1018.8 hPa Calm     90 % 0 mm
07:05 18.3 °C 16.7 °C 1018.8 hPa Calm     90 % 0 mm
07:10 18.3 °C 16.7 °C 1019.2 hPa Calm     90 % 0 mm
07:11 18.3 °C 16.7 °C 1019.2 hPa Calm     90 % 0 mm
07:16 18.4 °C 16.8 °C 1019.2 hPa Calm     90 % 0 mm
07:21 18.4 °C 16.9 °C 1019.2 hPa Calm     91 % 0 mm
07:26 18.4 °C 16.9 °C 1019.5 hPa Calm     91 % 0 mm
07:27 18.4 °C 16.9 °C 1019.2 hPa Calm     91 % 0 mm
07:32 18.4 °C 16.9 °C 1019.5 hPa Calm     91 % 0 mm
07:37 18.4 °C 16.9 °C 1019.5 hPa Calm     91 % 0 mm
07:42 18.4 °C 16.9 °C 1019.2 hPa Calm     91 % 0 mm
07:47 18.4 °C 16.9 °C 1019.2 hPa Calm     91 % 0 mm
07:52 18.4 °C 16.9 °C 1019.5 hPa Calm     91 % 0 mm
07:57 18.4 °C 16.9 °C 1019.5 hPa Calm     91 % 0 mm
08:02 18.4 °C 16.9 °C 1019.5 hPa Calm     91 % 0 mm
08:07 18.4 °C 16.9 °C 1019.5 hPa Calm     91 % 0 mm
08:12 18.4 °C 16.9 °C 1019.9 hPa Calm     91 % 0 mm
08:17 18.5 °C 17.1 °C 1019.9 hPa Calm     91 % 0 mm
08:22 18.7 °C 17.2 °C 1019.9 hPa Calm     91 % 0 mm
08:27 19.1 °C 17.6 °C 1019.5 hPa Calm     91 % 0 mm
08:32 19.5 °C 17.8 °C 1019.9 hPa Calm     90 % 0 mm
08:37 19.9 °C 18.1 °C 1019.9 hPa Calm     89 % 0 mm
08:42 20.1 °C 18.1 °C 1019.9 hPa Calm     88 % 0 mm
08:47 20.2 °C 17.9 °C 1020.2 hPa Calm     87 % 0 mm
08:52 20.3 °C 18.1 °C 1019.9 hPa Calm     87 % 0 mm
08:57 20.3 °C 18.1 °C 1020.2 hPa Calm     87 % 0 mm
09:02 20.4 °C 18.2 °C 1020.2 hPa Calm     87 % 0 mm
09:07 20.5 °C 18.1 °C 1020.2 hPa Calm     86 % 0 mm
09:12 20.6 °C 18.2 °C 1020.2 hPa Calm     86 % 0 mm
09:17 20.7 °C 18.1 °C 1020.2 hPa Calm     85 % 0 mm
09:22 20.8 °C 18.2 °C 1020.2 hPa Calm     85 % 0 mm
09:27 21.1 °C 18.4 °C 1020.2 hPa Calm     85 % 0 mm
09:32 21.3 °C 18.4 °C 1020.2 hPa Calm     84 % 0 mm
09:37 21.4 °C 18.7 °C 1020.2 hPa Calm     84 % 0 mm
09:42 21.8 °C 19.1 °C 1020.2 hPa Calm     84 % 0 mm
09:47 21.9 °C 18.9 °C 1020.2 hPa Calm     83 % 0 mm
09:52 22.2 °C 19.2 °C 1020.2 hPa Calm     83 % 0 mm
09:57 22.3 °C 19.3 °C 1020.2 hPa Calm     83 % 0 mm
10:02 22.6 °C 19.4 °C 1020.2 hPa Calm     82 % 0 mm
10:07 22.7 °C 19.5 °C 1020.2 hPa Calm     82 % 0 mm
10:12 22.8 °C 19.4 °C 1020.2 hPa Calm     81 % 0 mm
10:17 22.8 °C 19.4 °C 1020.2 hPa Calm     81 % 0 mm
10:22 23.1 °C 19.7 °C 1020.5 hPa Calm     81 % 0 mm
10:32 23.4 °C 19.8 °C 1020.5 hPa Calm     80 % 0 mm
10:37 23.3 °C 19.7 °C 1020.2 hPa Calm     80 % 0 mm
10:42 23.7 °C 20.1 °C 1020.2 hPa Calm     80 % 0 mm
10:47 24.2 °C 20.6 °C 1020.2 hPa Calm     80 % 0 mm
10:52 24.9 °C 21 °C 1020.2 hPa Calm     79 % 0 mm
10:57 25.6 °C 21.3 °C 1020.5 hPa Calm     77 % 0 mm
11:02 26.2 °C 21.4 °C 1020.2 hPa Calm     75 % 0 mm
11:08 26.7 °C 21.7 °C 1020.2 hPa Calm     74 % 0 mm
11:13 27.2 °C 21.7 °C 1020.2 hPa Calm     72 % 0 mm
11:18 27.4 °C 21.7 °C 1020.2 hPa Calm     71 % 0 mm
11:23 27.6 °C 21.4 °C 1020.2 hPa Calm     69 % 0 mm
11:28 27.3 °C 21.2 °C 1020.2 hPa Calm     69 % 0 mm
11:38 27.2 °C 21.2 °C 1019.9 hPa Calm     70 % 0 mm
11:43 27.3 °C 21.4 °C 1019.9 hPa Calm     70 % 0 mm
11:48 27.8 °C 21.9 °C 1019.9 hPa Calm     70 % 0 mm
11:53 28.4 °C 22 °C 1019.9 hPa Calm     68 % 0 mm
11:58 28.7 °C 21.8 °C 1019.9 hPa Calm     66 % 0 mm
12:03 28.6 °C 21.7 °C 1019.9 hPa Calm     66 % 0 mm
12:08 28.3 °C 21.6 °C 1019.9 hPa Calm     67 % 0 mm
12:13 28.4 °C 21.7 °C 1019.5 hPa Calm     67 % 0 mm
12:18 28.9 °C 22.2 °C 1019.9 hPa Calm     67 % 0 mm
12:23 29.4 °C 22.4 °C 1019.5 hPa Calm   1.1 km/h 66 % 0 mm
12:28 29.4 °C 21.9 °C 1019.5 hPa Calm   1.1 km/h 64 % 0 mm
12:33 29 °C 21.6 °C 1019.5 hPa Calm   1.1 km/h 64 % 0 mm
12:38 28.8 °C 21.6 °C 1019.5 hPa Calm     65 % 0 mm
12:43 29 °C 21.8 °C 1019.5 hPa Calm     65 % 0 mm
12:48 29 °C 21.8 °C 1019.2 hPa Calm     65 % 0 mm
12:53 29.4 °C 21.9 °C 1019.2 hPa Calm     64 % 0 mm
12:58 29.6 °C 21.6 °C 1018.8 hPa Calm     62 % 0 mm
13:03 29.9 °C 21.6 °C 1019.2 hPa Calm     61 % 0 mm
13:04 29.9 °C 21.6 °C 1019.2 hPa Calm     61 % 0 mm
13:09 30 °C 21.7 °C 1019.2 hPa Calm     61 % 0 mm
13:14 30.2 °C 21.9 °C 1018.8 hPa Calm     61 % 0 mm
13:19 30.4 °C 21.2 °C 1019.2 hPa Calm     58 % 0 mm
13:24 30.5 °C 21.6 °C 1018.8 hPa Calm     59 % 0 mm
13:29 30.4 °C 21.2 °C 1018.8 hPa Calm     58 % 0 mm
13:34 30.1 °C 21.2 °C 1018.8 hPa Calm   1.1 km/h 59 % 0 mm
13:39 29.8 °C 21.2 °C 1018.8 hPa Calm   1.1 km/h 60 % 0 mm
13:44 30.1 °C 21.5 °C 1018.5 hPa Calm     60 % 0 mm
13:49 30.7 °C 22.1 °C 1018.5 hPa Calm     60 % 0 mm
13:54 30.9 °C 21.8 °C 1018.5 hPa Calm     58 % 0 mm
13:59 30.9 °C 21.7 °C 1018.5 hPa Calm     58 % 0 mm
14:04 30.9 °C 21.1 °C 1018.5 hPa Calm   1.1 km/h 56 % 0 mm
14:09 30.9 °C 21.1 °C 1018.5 hPa Calm   1.1 km/h 56 % 0 mm
14:14 30.8 °C 21.3 °C 1018.2 hPa Calm   1.1 km/h 57 % 0 mm
14:19 30.8 °C 21 °C 1018.2 hPa Calm   1.1 km/h 56 % 0 mm
14:24 30.6 °C 21.1 °C 1018.2 hPa Calm     57 % 0 mm
14:30 31.1 °C 21.3 °C 1018.2 hPa Calm     56 % 0 mm
14:35 31.3 °C 21.6 °C 1018.2 hPa Calm     56 % 0 mm
14:40 31.6 °C 21.4 °C 1018.2 hPa Calm     55 % 0 mm
14:45 31.7 °C 21.6 °C 1018.2 hPa Calm     55 % 0 mm
14:50 31.7 °C 20.9 °C 1018.2 hPa Calm     53 % 0 mm
14:55 31.3 °C 20.9 °C 1017.8 hPa Calm   1.1 km/h 54 % 0 mm
15:00 31.2 °C 21.1 °C 1017.8 hPa Calm   1.1 km/h 55 % 0 mm
15:05 31.4 °C 21.7 °C 1017.8 hPa Calm     56 % 0 mm
15:10 31.8 °C 21.3 °C 1017.8 hPa Calm     54 % 0 mm
15:15 31.7 °C 20.9 °C 1017.8 hPa Calm     53 % 0 mm
15:20 31.6 °C 21.2 °C 1017.8 hPa Calm     54 % 0 mm
15:25 31.7 °C 21.2 °C 1017.8 hPa Calm     54 % 0 mm
15:30 31.4 °C 21.7 °C 1017.5 hPa Calm     56 % 0 mm
15:35 31.7 °C 21.6 °C 1017.5 hPa Calm     55 % 0 mm
15:40 31.7 °C 21.2 °C 1017.5 hPa Calm   1.1 km/h 54 % 0 mm
15:45 31.7 °C 20.6 °C 1017.5 hPa Calm   1.1 km/h 52 % 0 mm
15:50 31.4 °C 21.1 °C 1017.5 hPa Calm     54 % 0 mm
15:55 31.7 °C 21.2 °C 1017.5 hPa Calm     54 % 0 mm
16:00 31.7 °C 20.6 °C 1017.5 hPa Calm     52 % 0 mm
16:05 31.8 °C 21.1 °C 1017.5 hPa Calm     53 % 0 mm
16:10 31.8 °C 21.1 °C 1017.5 hPa Calm     53 % 0 mm
16:15 31.8 °C 21.1 °C 1017.5 hPa Calm     53 % 0 mm
16:20 31.8 °C 21.1 °C 1017.5 hPa Calm     53 % 0 mm
16:25 31.4 °C 20.4 °C 1017.2 hPa Calm     52 % 0 mm
16:30 31.2 °C 20.5 °C 1017.2 hPa Calm   1.1 km/h 53 % 0 mm
16:35 30.8 °C 20.1 °C 1017.2 hPa Calm   1.1 km/h 53 % 0 mm
16:40 30.8 °C 20.1 °C 1017.2 hPa Calm   1.1 km/h 53 % 0 mm
16:45 30.6 °C 19.9 °C 1017.5 hPa Calm     53 % 0 mm
16:50 30.3 °C 19.7 °C 1017.5 hPa Calm     53 % 0 mm
16:55 30.3 °C 19.9 °C 1017.5 hPa Calm     54 % 0 mm
17:00 30.5 °C 20.2 °C 1017.5 hPa Calm     54 % 0 mm
17:05 30.7 °C 19.4 °C 1017.5 hPa Calm     51 % 0 mm
17:10 30.5 °C 19.2 °C 1017.5 hPa Calm   1.1 km/h 51 % 0 mm
17:15 29.9 °C 18.7 °C 1017.5 hPa Calm   1.1 km/h 51 % 0 mm
17:20 29.5 °C 18.9 °C 1017.5 hPa Calm     53 % 0 mm
17:25 29.3 °C 19.1 °C 1017.5 hPa Calm     54 % 0 mm
17:30 29.4 °C 18.8 °C 1017.5 hPa Calm     53 % 0 mm
17:35 29.5 °C 18.9 °C 1017.5 hPa Calm     53 % 0 mm
17:40 29.3 °C 19.1 °C 1017.5 hPa Calm     54 % 0 mm
17:45 29.1 °C 19.2 °C 1017.5 hPa Calm     55 % 0 mm
17:50 29.4 °C 19.2 °C 1017.5 hPa Calm     54 % 0 mm
17:55 29.5 °C 19.2 °C 1017.5 hPa Calm     54 % 0 mm
18:00 29.5 °C 18.6 °C 1017.5 hPa Calm     52 % 0 mm
18:05 29.5 °C 18.6 °C 1017.5 hPa Calm     52 % 0 mm
18:10 29.4 °C 18.6 °C 1017.5 hPa Calm     52 % 0 mm
18:15 29.4 °C 18.6 °C 1017.8 hPa Calm   1.1 km/h 52 % 0 mm
18:20 29.3 °C 18.4 °C 1017.5 hPa Calm   1.1 km/h 52 % 0 mm
18:26 28.9 °C 18.4 °C 1017.5 hPa Calm   1.1 km/h 53 % 0 mm
18:31 28.7 °C 18.5 °C 1017.8 hPa Calm     54 % 0 mm
18:36 28.7 °C 18.5 °C 1017.8 hPa Calm     54 % 0 mm
18:41 28.8 °C 18.6 °C 1017.8 hPa Calm     54 % 0 mm
18:46 28.8 °C 18.6 °C 1018.2 hPa Calm     54 % 0 mm
18:51 28.8 °C 18.9 °C 1017.8 hPa Calm     55 % 0 mm
18:56 28.6 °C 19 °C 1018.2 hPa Calm     56 % 0 mm
19:01 28.1 °C 19.7 °C 1018.2 hPa Calm     60 % 0 mm
19:06 27.4 °C 20.3 °C 1018.2 hPa Calm   1.1 km/h 65 % 0 mm
19:07 27.2 °C 20.3 °C 1018.2 hPa Calm   1.1 km/h 66 % 0 mm
19:12 26.6 °C 20.2 °C 1018.5 hPa Calm   1.1 km/h 68 % 0 mm
19:17 25.9 °C 20.1 °C 1018.5 hPa Calm     70 % 0 mm
19:22 25.6 °C 19.9 °C 1018.5 hPa Calm     71 % 0 mm
19:27 25.3 °C 19.9 °C 1018.8 hPa Calm     72 % 0 mm
19:32 25.1 °C 19.9 °C 1018.8 hPa Calm   1.1 km/h 73 % 0 mm
19:37 24.8 °C 19.9 °C 1018.8 hPa Calm   1.1 km/h 74 % 0 mm
19:42 24.5 °C 20 °C 1019.2 hPa Calm     76 % 0 mm
19:44 24.3 °C 19.8 °C 1019.2 hPa Calm     76 % 0 mm
19:49 24.1 °C 19.8 °C 1019.2 hPa Calm     77 % 0 mm
19:54 23.7 °C 19.7 °C 1019.2 hPa Calm     78 % 0 mm
19:59 23.4 °C 19.8 °C 1019.5 hPa Calm   1.1 km/h 80 % 0 mm
20:04 23.1 °C 19.6 °C 1019.5 hPa Calm   1.1 km/h 81 % 0 mm
20:09 22.7 °C 19.5 °C 1019.9 hPa Calm     82 % 0 mm
20:14 22.6 °C 19.5 °C 1019.9 hPa Calm     83 % 0 mm
20:19 22.3 °C 19.3 °C 1019.9 hPa Calm     83 % 0 mm
20:24 22.2 °C 19.3 °C 1019.9 hPa Calm     84 % 0 mm
Ararat Weather
Compliments of Weather Underground - 1.75 mb
Click here to send mail.


ABOUT

Live weather data from Ararat, Victoria, Australia, 3377
Data uploaded from Cumulus every 5 minutes to Weather Underground.
This site then downloads the raw data for formatting and display.
Metric and imperial data can be displayed. Graphs and historical data available.
Includes Sun and Moon times and rain image live from BOM.

Check out Ararat Weather on Facebook, Twitter and Google +

Help support ongoing costs by checking out the ads





Follow @AraratWeather